This is the latest recevied weather packets stored in our database for station/object W5COG. If no packets are shown the sender has not sent any weather packets the latest 1 day(s).
| Time | Temp. | Humidity | Pressure | Rain* | Wind** | Luminosity | Snow |
|---|---|---|---|---|---|---|---|
| 1777975527 | 18.89° C | 76% | 1001.2 hPa | 0 mm | 2.24 m/s, 63° | 0 W/m² | - |
| 1777975227 | 18.89° C | 76% | 1001 hPa | 0 mm | 2.24 m/s, 86° | 0 W/m² | - |
| 1777974927 | 18.89° C | 76% | 1001 hPa | 0 mm | 2.68 m/s, 74° | 0 W/m² | - |
| 1777974627 | 18.89° C | 76% | 1000.9 hPa | 0 mm | 2.24 m/s, 74° | 0 W/m² | - |
| 1777974327 | 18.89° C | 76% | 1000.8 hPa | 0 mm | 2.24 m/s, 77° | 0 W/m² | - |
| 1777974027 | 18.89° C | 76% | 1000.8 hPa | 0 mm | 2.68 m/s, 87° | 0 W/m² | - |
| 1777973428 | 18.89° C | 75% | 1000.7 hPa | 0 mm | 2.68 m/s, 88° | 0 W/m² | - |
| 1777973128 | 18.89° C | 75% | 1000.7 hPa | 0 mm | 2.68 m/s, 83° | 0 W/m² | - |
| 1777972828 | 18.89° C | 75% | 1000.8 hPa | 0 mm | 2.68 m/s, 91° | 0 W/m² | - |
| 1777972528 | 18.89° C | 75% | 1000.8 hPa | 0 mm | 2.24 m/s, 84° | 0 W/m² | - |
| 1777972229 | 18.89° C | 75% | 1000.8 hPa | 0 mm | 2.68 m/s, 94° | 0 W/m² | - |
| 1777971927 | 18.89° C | 75% | 1000.9 hPa | 0 mm | 2.24 m/s, 90° | 0 W/m² | - |
| 1777971628 | 18.89° C | 75% | 1000.9 hPa | 0 mm | 2.68 m/s, 95° | 0 W/m² | - |
| 1777971328 | 18.89° C | 75% | 1000.9 hPa | 0 mm | 2.24 m/s, 94° | 0 W/m² | - |
| 1777971027 | 18.89° C | 75% | 1001 hPa | 0 mm | 2.24 m/s, 94° | 0 W/m² | - |
| 1777970727 | 18.89° C | 74% | 1001 hPa | 0 mm | 2.24 m/s, 92° | 0 W/m² | - |
| 1777970428 | 18.89° C | 74% | 1001 hPa | 0 mm | 2.24 m/s, 92° | 0 W/m² | - |
| 1777970128 | 18.89° C | 74% | 1001 hPa | 0 mm | 3.13 m/s, 94° | 0 W/m² | - |
| 1777969828 | 18.89° C | 74% | 1001 hPa | 0 mm | 2.68 m/s, 87° | 0 W/m² | - |
| 1777969528 | 18.89° C | 75% | 1001.1 hPa | 0 mm | 2.24 m/s, 99° | 0 W/m² | - |
| 1777969228 | 18.89° C | 74% | 1001.2 hPa | 0 mm | 2.24 m/s, 84° | 0 W/m² | - |
| 1777968928 | 18.89° C | 74% | 1001.3 hPa | 0 mm | 1.79 m/s, 94° | 0 W/m² | - |
| 1777968628 | 18.89° C | 74% | 1001.3 hPa | 0 mm | 2.24 m/s, 82° | 0 W/m² | - |
| 1777968328 | 18.89° C | 74% | 1001.3 hPa | 0 mm | 2.24 m/s, 84° | 0 W/m² | - |
| 1777968027 | 18.89° C | 74% | 1001.4 hPa | 0 mm | 2.24 m/s, 77° | 0 W/m² | - |
* Rain latest hour (hover to see other rain measurements)
** Current wind speed in m/s (hover to see current wind gust speed)